Date String (YYYY-MM-DD hh:mm:ss) UTC,Instrument flags,Ambient pressure (hPa),Sample flow (lpm),Bypass flow (lpm),Sample temperature (°C),Ambient temperature (°C),ASC tube jacket temperature (°C),LED temperature (°C),Box temperature (°C),Sample RH (%),Span deviation,Mass concentration (μg/m³),Mass concentration (μg/m³),Mass concentration (μg/m³)
DateTimeUTC,F1_M11,P_M11,Q1_M11,Q2_M11,T1_M11,T2_M11,T3_M11,T4_M11,T5_M11,U1_M11,ZSPAN_M11,X0_M11,X2_M11,X1_M11
2022-07-08 08:00:00,,0833.6,4.99,0.00,29.9,28.7,00.0,38.7,31.8,32.0,0000.0,0010.05,0004.01,0003.36
2022-07-08 08:01:00,,0833.6,5.00,0.00,29.9,28.7,00.0,38.7,31.9,31.9,0000.0,0010.37,0003.96,0003.34
2022-07-08 08:02:00,,0833.5,5.00,0.00,29.9,28.8,00.0,38.7,31.9,31.8,0000.0,0009.76,0003.88,0003.31
2022-07-08 08:03:00,,0833.5,5.00,0.00,29.9,28.8,00.0,38.7,31.9,31.8,0000.0,0009.44,0003.83,0003.29
2022-07-08 08:04:00,,0833.5,5.00,0.00,30.0,28.9,00.0,38.7,31.9,31.8,0000.0,0009.45,0003.83,0003.28
2022-07-08 08:05:00,,0833.4,5.00,0.00,30.0,28.9,00.0,38.7,31.9,31.6,0000.0,0009.48,0003.84,0003.27
2022-07-08 08:06:00,,0833.4,4.99,0.00,30.0,28.9,00.0,38.7,32.0,31.6,0000.0,0009.19,0003.84,0003.26
2022-07-08 08:07:00,,0833.4,5.00,0.00,30.0,28.9,00.0,38.8,32.0,31.6,0000.0,0009.57,0003.82,0003.25
2022-07-08 08:08:00,,0833.4,5.00,0.00,30.0,29.0,00.0,38.8,32.0,31.5,0000.0,0009.69,0003.83,0003.24
2022-07-08 08:09:00,,0833.4,5.01,0.00,30.0,29.0,00.0,38.8,32.0,31.5,0000.0,0009.38,0003.83,0003.25
2022-07-08 08:10:00,,0833.5,5.00,0.00,30.1,29.0,00.0,38.8,32.0,31.5,0000.0,0010.00,0003.83,0003.25
2022-07-08 08:11:00,,0833.4,4.99,0.00,30.1,29.0,00.0,38.8,32.0,31.4,0000.0,0010.61,0003.84,0003.25
2022-07-08 08:12:00,,0833.4,5.00,0.00,30.1,29.1,00.0,38.8,32.0,31.4,0000.0,0010.81,0003.86,0003.25
2022-07-08 08:13:00,,0833.4,5.00,0.00,30.1,29.1,00.0,38.9,32.1,31.2,0000.0,0011.00,0003.88,0003.25
2022-07-08 08:14:00,,0833.5,5.01,0.00,30.1,29.1,00.0,38.9,32.1,31.2,0000.0,0011.58,0003.88,0003.23
2022-07-08 08:15:00,,0833.4,5.01,0.00,30.2,29.1,00.0,38.9,32.1,31.0,0000.0,0011.64,0003.88,0003.23
2022-07-08 08:16:00,,0833.5,5.00,0.00,30.2,29.1,00.0,38.9,32.1,30.9,0000.0,0011.88,0003.89,0003.24
2022-07-08 08:17:00,,0833.4,5.00,0.00,30.2,29.2,00.0,38.9,32.1,30.8,0000.0,0011.83,0003.90,0003.24
2022-07-08 08:18:00,,0833.4,5.00,0.00,30.2,29.2,00.0,38.9,32.1,30.8,0000.0,0011.06,0003.90,0003.24
2022-07-08 08:19:00,,0833.5,5.00,0.00,30.2,29.2,00.0,39.0,32.1,30.8,0000.0,0010.68,0003.90,0003.23
2022-07-08 08:20:00,,0833.4,5.00,0.00,30.2,28.6,00.0,38.9,32.1,30.8,0000.0,0010.57,0003.88,0003.23
2022-07-08 08:21:00,,0833.4,5.01,0.00,30.2,27.8,00.0,38.9,32.0,30.8,0000.0,0010.30,0003.87,0003.24
2022-07-08 08:22:00,,0833.3,5.01,0.00,30.1,27.5,00.0,38.8,31.8,30.9,0000.0,0009.86,0003.86,0003.25
2022-07-08 08:23:00,,0833.3,5.00,0.00,30.0,27.5,00.0,38.8,31.7,31.3,0000.0,0009.44,0003.90,0003.25
2022-07-08 08:24:00,,0833.3,5.00,0.00,29.9,27.6,00.0,38.8,31.7,31.3,0000.0,0008.99,0003.89,0003.26
2022-07-08 08:25:00,,0833.3,5.01,0.00,29.9,27.7,00.0,38.8,31.6,31.2,0000.0,0008.49,0003.90,0003.28
2022-07-08 08:26:00,,0833.3,5.00,0.00,29.9,27.8,00.0,38.8,31.6,31.3,0000.0,0008.54,0003.95,0003.30
2022-07-08 08:27:00,,0833.3,5.01,0.00,29.8,27.9,00.0,38.7,31.6,31.3,0000.0,0008.45,0003.99,0003.32
2022-07-08 08:28:00,,0833.3,5.00,0.00,29.8,28.1,00.0,38.7,31.7,31.2,0000.0,0008.67,0004.05,0003.35
2022-07-08 08:29:00,,0833.4,5.00,0.00,29.8,28.2,00.0,38.7,31.7,31.3,0000.0,0008.85,0004.09,0003.37
2022-07-08 08:30:00,,0833.5,4.99,0.00,29.8,28.3,00.0,38.7,31.7,31.2,0000.0,0009.46,0004.09,0003.38
2022-07-08 08:31:00,,0833.4,5.01,0.00,29.9,28.4,00.0,38.7,31.7,31.2,0000.0,0009.95,0004.11,0003.40
2022-07-08 08:32:00,,0833.4,5.00,0.00,29.9,28.5,00.0,38.7,31.8,31.2,0000.0,0009.63,0004.12,0003.41
2022-07-08 08:33:00,,0833.4,5.01,0.00,29.9,28.5,00.0,38.7,31.8,31.2,0000.0,0009.60,0004.15,0003.43
2022-07-08 08:34:00,,0833.4,4.98,0.00,29.9,28.6,00.0,38.7,31.8,31.1,0000.0,0009.52,0004.15,0003.45
2022-07-08 08:35:00,,0833.4,5.00,0.00,29.9,28.6,00.0,38.7,31.8,30.9,0000.0,0009.47,0004.15,0003.46
2022-07-08 08:36:00,,0833.4,5.00,0.00,29.9,28.7,00.0,38.7,31.8,30.8,0000.0,0009.60,0004.13,0003.46
2022-07-08 08:37:00,,0833.3,5.00,0.00,29.9,28.7,00.0,38.7,31.9,30.8,0000.0,0010.18,0004.14,0003.46
2022-07-08 08:38:00,,0833.4,4.99,0.00,29.9,28.8,00.0,38.7,31.9,30.8,0000.0,0010.13,0004.15,0003.47
2022-07-08 08:39:00,,0833.4,4.99,0.00,30.0,28.8,00.0,38.8,31.9,30.8,0000.0,0009.91,0004.11,0003.48
2022-07-08 08:40:00,,0833.4,5.00,0.00,30.0,28.8,00.0,38.8,31.9,30.8,0000.0,0009.95,0004.12,0003.50
2022-07-08 08:41:00,,0833.4,5.00,0.00,30.0,28.8,00.0,38.8,31.9,30.8,0000.0,0009.40,0004.15,0003.51
2022-07-08 08:42:00,,0833.4,5.00,0.00,30.0,28.9,00.0,38.8,32.0,30.8,0000.0,0009.89,0004.17,0003.52
2022-07-08 08:43:00,,0833.4,5.00,0.00,30.0,28.9,00.0,38.8,32.0,30.7,0000.0,0010.06,0004.19,0003.54
2022-07-08 08:44:00,,0833.4,5.00,0.00,30.0,28.9,00.0,38.8,32.0,30.7,0000.0,0010.08,0004.22,0003.56
2022-07-08 08:45:00,,0833.4,5.01,0.00,30.1,28.9,00.0,38.8,32.0,30.7,0000.0,0010.67,0004.22,0003.58
2022-07-08 08:46:00,,0833.4,5.00,0.00,30.1,29.0,00.0,38.8,32.0,30.6,0000.0,0010.65,0004.21,0003.58
2022-07-08 08:47:00,,0833.4,5.00,0.00,30.1,29.0,00.0,38.9,32.0,30.6,0000.0,0010.64,0004.23,0003.59
2022-07-08 08:48:00,,0833.4,4.99,0.00,30.1,29.0,00.0,38.9,32.0,30.6,0000.0,0009.84,0004.19,0003.58
2022-07-08 08:49:00,,0833.4,5.00,0.00,30.1,29.0,00.0,38.9,32.0,30.7,0000.0,0009.94,0004.15,0003.57
2022-07-08 08:50:00,,0833.4,5.01,0.00,30.1,29.0,00.0,38.9,32.0,30.7,0000.0,0010.03,0004.16,0003.55
2022-07-08 08:51:00,,0833.4,5.01,0.00,30.2,29.0,00.0,38.9,32.1,30.7,0000.0,0009.96,0004.16,0003.54
2022-07-08 08:52:00,,0833.5,5.00,0.00,30.2,29.0,00.0,38.9,32.1,30.6,0000.0,0009.93,0004.16,0003.52
2022-07-08 08:53:00,,0833.5,5.00,0.00,30.2,29.1,00.0,38.9,32.1,30.5,0000.0,0009.12,0004.13,0003.52
2022-07-08 08:54:00,,0833.5,4.99,0.00,30.2,29.1,00.0,39.0,32.1,30.4,0000.0,0008.69,0004.12,0003.50
2022-07-08 08:55:00,,0833.5,4.99,0.00,30.2,29.1,00.0,39.0,32.1,30.4,0000.0,0008.48,0004.07,0003.49
2022-07-08 08:56:00,,0833.5,5.00,0.00,30.2,29.1,00.0,39.0,32.1,30.4,0000.0,0007.81,0004.04,0003.48
2022-07-08 08:57:00,,0833.5,5.00,0.00,30.2,29.1,00.0,39.0,32.1,30.4,0000.0,0007.89,0004.11,0003.49
2022-07-08 08:58:00,,0833.5,4.99,0.00,30.2,28.4,00.0,38.9,32.1,30.4,0000.0,0008.04,0004.16,0003.51
2022-07-08 08:59:00,,0833.5,5.01,0.00,30.2,27.7,00.0,38.9,32.0,30.4,0000.0,0008.06,0004.20,0003.53
